Startpagina
METAR-TAF:

METAR-TAF

Vliegvelden :

Santa Marta, Colombia

breedte: 11-08N, lengte: 074-14W, hoogte: 4 m

Actueel weer

Dit bericht is 2 uur en het 48 minuten geleden gemaakt, om 05:00 UTC
Wind 4 kt uit het oostzuidoosten
Temperatuur 26°C
Vochtigheid 74%
Druk 1012 hPa
Zicht 10 km of meer
Weinig wolken op 2000 ft
Verspreide wolken op 20000 ft

METAR: SKSM 210500Z 11004KT 9999 FEW020 SCT200 26/21 A2989

Tijdstip: 02:48 (07:48 UTC)


TAF: ontbreekt

Waarnemingen en weersverwachtingen van meer dan 4000 vliegvelden (METAR en TAF).

De beschikbare stations zijn de gele en rode punten op de kaart.

Ga met uw muis naar het station om de naam te zien.

Klik dan om waarnemingen en weersverwachtingen te zien.

kaart wijzigen: klik op de groene knoppen met een zwart kruis om in te zoomen, op de groene knop met een streepje om uit te zoomen of op de groene pijlen voor aangrenzende kaarten.


METAR-TAF: